カタログに戻る

FLOCK 4H 13

運用中科学SSO
NORAD 66716·PAYLOAD·🇺🇸 United States

打ち上げ Nov 28, 2025 から Vandenberg Space Force Base

Loading…

次のパス (今後24時間)

TLE

最新Source: CelesTrak SupGP

元期: Sep 14, 2026, 22:45 UTC

1 66716C 25276BC  26257.94797454  .00001293  00000+0  57543-4 0  2578
2 66716  97.4147 330.4552 0001539  56.5295 239.5533 15.21550205    19

AllMySatでFLOCK 4H 13をリアルタイム追跡

Download on the App Store